{"data":{"norad_id":55372,"epoch":"2026-05-24T16:39:16.678656Z","epoch_age_seconds":91599,"freshness":"FRESH","line1":"1 55372U 23013AT  26144.69394304  .00000079  00000+0  12401-4 0  9993","line2":"2 55372  43.0036 249.1708 0001313 262.3363  97.7339 15.27582505183127","mean_motion":15.27582505,"eccentricity":0.0001313,"inclination_deg":43.0036,"raan_deg":249.1708,"arg_perigee_deg":262.3363,"mean_anomaly_deg":97.7339,"bstar":1.2401e-5,"rev_number":18312,"period_min":94.266594130705,"perigee_km":482.14072242919,"apogee_km":483.94246792828,"semimajor_km":6861.1785951787,"source":"CELESTRAK","updated_at":"2026-05-25T13:38:17.768457Z"}}